STARLINK-4729, 53804

Orbit data source: Space-Track

STARLINK-4729, 53804 is a payload satellite owned by SpaceX/Seattle (US) in LEO that was launched on Sun, 11 Sep 2022 UTC via an FALCON 9 launch vehicle from the Air Force Eastern Test Range (AFETR). Payload-class satellites include a variety of spacecraft equipped with specific instruments for various scientific and technological missions. These include communications satellites like Starlink; space stations such as the ISS; scientific satellites like the Hubble; Earth observation satellites from companies like Planet Labs, Umbra, and HawkEye 360; GPS; miniature CubeSats for education and research; and military/defense satellites.

Loading next visibility...
Identifier
53804, 2022-111AH
Orbit
LEO
Country
Flag of USUS
Related business
Manufacturer
SpaceX/Seattle
Mission
Operational Commercial Communications
Bus & Motor
STARLINK, Unknown motor
Mass
305 kg wet, ~290 kg dry
Launch date (UTC)
2022-09-11 (3 years ago)
Launch vehicle
FALCON 9
Launch site
Air Force Eastern Test Range (AFETR)
Object type
Payload
Rocket body
Debris
Shape & HBR
Box + 1 Pan, 10.1 m
Radar Cross Section
13.562 m², Large (>1 m²)

Expand to show TLE details & history
Last TLE update: 1 day ago

TLE from 1 day ago
0 STARLINK-4729
1 53804U 22111AH  25340.91512334  .00000787  00000-0  67571-4 0  9991
2 53804  53.2181 315.3874 0001220  89.9586 270.1546 15.08831535179880
Epoch: 2025-12-06T21:57Z
TLE epoch observation values (Epoch: 2025-12-06T21:57:46.656Z)
Latitude
-0.00003°
Longitude
-89.99303°
Altitude
540.665 km
Speed
7.593 km/s
True Right ascension
21h 01m 32s
True Declination
0° 00' 00"
Sunlit
Object was in daylight at epoch
Visualization orbit readout
Latitude
Unknown
Longitude
Unknown
Altitude
Unknown
Speed
Unknown
Apparent Right ascension
Unknown
Apparent Declination
Unknown
Sunlit
N/A
Visualization observer readout
Local Sidereal Time
19:45:51
Azimuth
Unknown
Elevation
Unknown
Doppler factor
Unknown
Orbital elements
Apogee altitude
540.858 km
Perigee altitude
539.17 km
Semi-major axis
6,918.151 km
Eccentricity
0.00012
Inclination
53.2181°
RAAN
315.3874°
Arg. of periapsis
89.9586°
True anomaly
270.14062°
Mean anomaly
270.1546°
Eccentric anomaly
270.14761°
Mean motion
3.77188 °/min
Orbital period
95.44 mins
BSTAR
0.000067571
Loading maneuver chart data...
Computing Atmospheric mass density...
Loading historical data...
Loading historical data...
Loading historical data...
Loading historical data...
Loading historical data...
Loading historical data...
Loading historical data...

Documentation

Showing up to 5 results
|